CAPE
0 0 0 0 0 0 0 0 0 2 2 2 1 0 0 0 0 0 0 0 0 0 0 0 0 0 0 0 0 0 0 0 0 1 2 3 4 34 4 1 1 0 0 0 0 170 107 1 245 404 362 367 256 146
0 0 0 0 0 0 0 0 0 1 3 3 2 0 0 0 0 0 0 0 0 0 0 0 0 0 0 0 0 0 0 0 0 0 1 0 3 15 15 18 1 8 102 81 132 92 1 3 7 4 72 101 101 162
0 0 0 0 0 0 0 0 0 0 2 0 0 1 0 0 0 0 0 0 0 0 0 0 0 0 0 0 0 0 0 0 1 1 1 1 1 3 61 4 3 1 9 7 109 1 3 4 0 1 0 0 0 10
0 0 0 0 0 0 0 0 0 0 1 0 0 1 0 0 0 0 0 0 0 0 0 0 0 0 0 0 0 0 0 0 0 1 7 1 0 0 3 1 5 1 32 20 3 2 3 0 0 0 0 0 0 0
0 0 0 0 0 0 0 0 0 0 0 0 0 1 2 0 0 0 0 0 0 0 0 0 0 0 0 0 0 0 0 0 0 0 2 5 1 0 0 0 2 2 2 110 25 0 1 0 0 0 0 0 0 0
0 0 0 0 0 0 0 0 0 0 0 0 0 0 0 0 0 0 0 0 0 0 0 0 0 0 0 0 0 0 0 0 0 0 0 0 0 0 0 0 0 0 0 0 1 0 0 0 0 0 0 0 0 0
0 0 0 0 0 0 0 0 0 0 0 0 0 0 0 0 0 0 0 0 0 0 0 0 0 0 0 0 0 0 0 0 0 0 0 0 0 0 0 0 0 0 0 0 0 0 0 0 0 0 0 0 0 0
0 0 0 0 0 0 0 0 0 0 0 1 1 1 0 0 0 0 0 0 0 0 0 0 0 0 0 0 0 0 0 0 0 0 0 0 0 0 0 0 0 0 0 0 0 0 0 0 0 0 0 0 0 0
0 0 0 0 0 1 3 4 0 0 0 1 1 0 0 0 0 1 0 0 0 0 0 0 0 0 0 0 0 0 0 0 0 0 0 0 0 0 0 0 0 0 0 0 0 0 0 0 0 0 0 0 0 0
0 0 0 0 0 1 5 4 2 0 1 2 0 0 1 0 1 1 0 0 0 0 0 0 0 0 0 0 0 0 0 0 0 0 0 0 0 0 0 0 0 0 0 0 0 0 0 0 0 0 0 0 0 0
0 0 0 0 3 3 5 3 2 1 0 0 1 1 0 1 1 0 0 0 0 0 0 0 0 0 0 0 0 0 0 0 0 0 0 0 0 0 0 0 0 0 0 0 0 0 0 0 0 0 0 0 0 0
0 0 0 2 3 3 3 4 2 0 0 0 1 0 0 0 0 0 0 0 0 0 0 1 0 0 0 0 0 0 0 0 0 0 0 0 0 0 0 0 0 0 0 0 0 0 0 0 0 0 0 0 0 0
0 0 0 2 1 2 4 3 2 0 0 1 0 0 0 0 0 0 0 10 7 0 1 1 0 0 0 0 0 0 0 0 0 0 0 0 0 0 0 0 0 0 0 0 0 0 0 0 0 0 0 0 0 0
0 0 0 0 0 0 2 4 3 1 1 0 0 0 1 0 0 0 2 11 1 1 1 24 8 0 0 0 0 0 0 0 0 0 0 0 0 0 0 0 0 0 0 0 0 0 0 0 0 0 0 0 0 0
0 0 0 0 0 0 1 2 1 1 0 0 0 0 0 0 0 3 1 3 3 3 5 6 4 0 2 1 0 0 0 0 0 0 0 0 0 0 0 0 0 0 0 0 0 0 0 0 0 0 0 0 0 0
0 0 0 0 1 1 2 1 1 1 1 1 1 0 0 1 0 1 2 4 16 5 0 4 3 4 2 1 0 0 0 0 0 0 0 0 0 0 0 0 0 0 0 0 0 0 0 0 0 0 0 0 0 0
1 0 0 0 1 1 1 0 1 0 1 1 0 0 0 0 0 0 0 0 6 13 3 1 5 2 1 2 0 0 0 0 0 0 0 0 0 0 0 0 0 0 0 0 0 0 0 0 0 0 0 0 0 0
0 1 0 0 2 1 1 1 1 1 0 0 0 0 0 0 0 0 0 0 0 8 1 1 14 5 0 0 0 0 0 0 0 0 0 0 0 0 0 0 0 0 0 0 0 0 0 0 0 0 0 0 0 0
0 1 1 0 0 0 0 1 1 0 0 1 0 0 0 0 0 0 0 0 0 6 5 1 0 2 1 0 0 26 0 0 0 0 0 0 0 0 0 0 0 0 0 0 0 0 0 0 0 0 0 0 0 1
1 1 1 1 1 0 0 1 0 1 0 1 0 0 0 0 0 0 0 0 1 6 3 0 0 7 5 6 0 0 0 0 0 0 0 0 0 0 0 0 0 0 0 0 0 0 0 0 0 0 0 0 0 0
1 1 1 1 1 0 0 1 0 0 2 2 0 0 0 0 0 0 0 4 4 2 1 14 8 1 0 0 0 0 0 0 0 0 0 0 0 0 0 0 0 0 0 0 0 0 0 0 0 0 0 0 0 0
2 1 1 1 0 1 0 0 0 0 0 0 0 0 0 0 0 0 1 4 3 0 0 5 0 0 0 0 0 0 0 0 0 0 0 0 0 0 0 0 0 0 0 0 0 0 0 0 0 0 0 0 0 0
0 1 1 1 0 0 0 1 1 0 1 1 0 0 1 17 0 1 0 0 0 0 0 0 0 0 0 0 0 0 0 0 0 0 0 0 0 0 0 0 0 0 1 5 0 0 0 0 0 0 0 0 0 0
1 1 0 0 0 1 1 2 4 6 5 0 5 1 14 22 0 0 0 0 0 0 0 0 0 0 0 0 0 0 0 0 0 0 0 0 0 0 0 0 3 3 2 3 0 0 0 0 0 0 0 0 0 0
0 0 0 0 2 1 8 8 9 9 3 10 4 6 11 13 7 5 18 5 0 0 0 0 0 0 0 0 0 0 0 0 0 0 0 0 0 0 0 0 0 0 0 0 0 0 0 0 0 0 0 0 0 0
1 0 0 0 5 2 8 23 17 16 29 16 9 11 19 17 1 3 1 0 0 0 0 0 0 0 0 0 0 0 0 0 0 0 0 0 0 0 0 0 0 0 0 0 0 0 0 0 0 0 0 0 0 0
1 3 5 0 1 3 8 10 16 34 16 9 13 7 6 5 4 2 0 0 4 1 0 0 0 0 0 0 0 0 0 0 0 0 0 0 0 0 0 0 0 0 0 0 0 0 0 0 0 0 0 0 0 0
1 2 2 10 4 5 20 29 19 4 6 9 20 12 3 4 3 1 0 0 0 0 0 0 0 0 0 0 0 0 0 0 0 0 0 0 0 0 0 0 0 0 0 0 0 0 0 0 0 0 0 0 0 0
0 7 2 0 5 11 14 12 8 10 8 16 10 3 9 17 11 0 0 0 0 0 9 0 0 0 0 0 0 0 0 0 0 0 0 0 0 0 0 0 0 0 0 0 0 0 0 0 0 0 0 0 0 0
0 0 6 5 3 0 1 0 4 7 7 13 24 23 24 20 8 1 2 0 2 3 36 58 74 33 32 38 74 17 0 0 0 0 3 0 0 0 0 0 0 0 0 0 0 0 0 0 0 0 0 0 0 0
0 0 0 0 0 0 1 5 6 2 8 16 26 5 5 8 0 0 0 1 17 23 52 87 108 68 114 121 147 206 148 2 0 0 0 0 0 0 0 0 0 0 0 0 0 0 0 0 0 0 0 0 0 0
0 0 0 0 1 2 0 0 1 2 23 11 9 4 2 1 0 0 9 12 29 68 81 102 171 258 204 66 43 22 7 17 5 0 0 0 0 0 0 0 0 0 0 0 0 0 0 0 0 0 0 0 0 0
0 0 0 1 6 14 28 3 11 2 3 3 0 0 0 0 0 14 10 7 82 163 125 46 14 6 2 0 0 0 0 0 0 0 0 0 0 0 0 0 0 0 0 0 0 0 0 0 0 0 0 0 0 0
CIN
-0 -0 -0 -0 -0 -0 -0 -0 -0 -0 -0 -0 -0 -0 -0 -0 -0 -0 -0 -0 -0 -0 -0 -0 -0 -0 -0 -0 -0 -0 -0 -0 -0 -0 -0 -1 -0 -5 -10 -0 -0 -0 -0 -0 -11 -60 -27 -211 -204 -67 -77 -56 -98 -112
-0 -0 -0 -0 -0 -0 -0 -0 -0 -0 -0 -0 -0 -0 -0 -0 -0 -0 -0 -0 -0 -0 -0 -0 -0 -0 -0 -0 -0 -0 -0 -0 -0 -0 -0 -0 -0 -35 -13 -58 -0 -101 -147 -136 -156 -186 -0 -0 -49 -0 -340 -240 -216 -108
-0 -0 -0 -0 -0 -0 -0 -0 -0 -0 -0 -0 -0 -0 -0 -0 -0 -0 -0 -0 -0 -0 -0 -0 -0 -0 -0 -0 -0 -0 -3 -0 -0 -4 -4 -5 -1 -9 -28 -11 -28 -3 -94 -42 -186 -0 -0 -0 -0 -0 -0 -0 -0 -87
-0 -0 -0 -0 -0 -0 -0 -0 -0 -0 -0 -0 -0 -0 -0 -0 -0 -0 -0 -0 -0 -0 -0 -0 -0 -0 -0 -0 -0 -0 -0 -0 -0 -2 -3 -2 -0 -0 -101 -0 -0 -0 -88 -183 -0 -0 -0 -0 -0 -0 -0 -0 -0 -0
-0 -0 -0 -0 -0 -0 -0 -0 -0 -0 -0 -0 -0 -0 -0 -0 -0 -0 -0 -0 -0 -0 -0 -0 -0 -0 -0 -0 -0 -0 -0 -0 -0 -0 -1 -0 -5 -21 -0 -0 -0 -0 -26 -122 -168 -0 -0 -0 -0 -0 -0 -0 -0 -0
-0 -0 -0 -0 -0 -0 -0 -0 -0 -0 -0 -0 -0 -0 -0 -0 -0 -0 -0 -0 -0 -0 -0 -0 -0 -0 -0 -0 -0 -0 -0 -0 -0 -0 -0 -0 -1 -0 -0 -5 -0 -0 -0 -0 -0 -0 -0 -0 -0 -0 -0 -0 -0 -0
-0 -0 -0 -0 -0 -0 -0 -0 -0 -0 -0 -0 -0 -0 -0 -0 -0 -0 -0 -0 -0 -0 -0 -0 -0 -0 -0 -0 -0 -0 -0 -0 -0 -0 -0 -0 -0 -0 -0 -0 -0 -0 -0 -0 -0 -0 -0 -0 -0 -0 -0 -0 -0 -0
-0 -0 -0 -0 -0 -0 -0 -0 -0 -0 -0 -0 -0 -0 -0 -0 -0 -0 -0 -0 -0 -0 -0 -0 -0 -0 -0 -0 -0 -0 -0 -0 -0 -0 -0 -0 -0 -0 -0 -0 -0 -0 -0 -0 -0 -0 -0 -0 -0 -0 -0 -0 -0 -0
-0 -0 -0 -0 -0 -0 -0 -0 -0 -0 -0 -0 -0 -0 -0 -0 -0 -0 -0 -0 -0 -0 -0 -0 -0 -0 -0 -0 -0 -0 -0 -0 -0 -0 -0 -0 -0 -0 -0 -0 -0 -0 -0 -0 -0 -0 -0 -0 -0 -0 -0 -0 -0 -0
-0 -0 -0 -0 -0 -0 -0 -0 -0 -0 -0 -0 -0 -0 -0 -0 -0 -0 -0 -0 -0 -0 -0 -0 -0 -0 -0 -0 -0 -0 -0 -0 -0 -0 -0 -0 -0 -0 -0 -0 -0 -0 -0 -0 -0 -0 -0 -0 -0 -0 -0 -0 -0 -0
-0 -0 -0 -0 -0 -0 -0 -0 -0 -0 -0 -0 -0 -0 -0 -0 -0 -0 -0 -0 -0 -0 -0 -0 -0 -0 -0 -0 -0 -0 -0 -0 -0 -0 -0 -0 -0 -0 -0 -0 -0 -0 -0 -0 -0 -0 -0 -0 -0 -0 -0 -0 -0 -0
-0 -0 -0 -0 -0 -0 -0 -0 -0 -0 -0 -0 -0 -0 -0 -0 -0 -2 -0 -0 -0 -5 -0 -9 -0 -0 -0 -0 -0 -0 -0 -0 -0 -0 -0 -0 -0 -0 -0 -0 -0 -0 -0 -0 -0 -0 -0 -0 -0 -0 -0 -0 -0 -0
-0 -0 -0 -0 -0 -0 -0 -0 -0 -0 -0 -0 -0 -0 -0 -0 -0 -0 -2 -1 -12 -0 -15 -16 -0 -0 -0 -0 -0 -0 -0 -0 -0 -0 -0 -0 -0 -0 -0 -0 -0 -0 -0 -0 -0 -0 -0 -0 -0 -0 -0 -0 -0 -0
-0 -0 -0 -0 -0 -0 -0 -0 -0 -0 -0 -0 -0 -0 -0 -0 -0 -0 -9 -5 -6 -31 -16 -7 -7 -0 -0 -0 -0 -0 -0 -0 -0 -0 -0 -0 -0 -0 -0 -0 -0 -0 -0 -0 -0 -0 -0 -0 -0 -0 -0 -0 -0 -0
-0 -0 -0 -0 -0 -0 -0 -0 -0 -0 -0 -0 -0 -0 -0 -0 -6 -14 -11 -26 -8 -21 -12 -6 -13 -0 -1 -1 -0 -0 -0 -0 -0 -0 -0 -0 -0 -0 -0 -0 -0 -0 -0 -0 -0 -0 -0 -0 -0 -0 -0 -0 -0 -0
-0 -0 -0 -0 -0 -0 -0 -0 -0 -0 -0 -0 -0 -0 -0 -0 -8 -8 -14 -13 -21 -23 -0 -6 -7 -1 -3 -1 -0 -0 -0 -0 -0 -0 -0 -0 -0 -0 -0 -0 -0 -0 -0 -0 -0 -0 -0 -0 -0 -0 -0 -0 -0 -0
-0 -0 -0 -0 -0 -0 -0 -0 -0 -0 -0 -0 -0 -0 -0 -0 -0 -5 -0 -0 -22 -17 -6 -15 -7 -1 -2 -0 -0 -0 -0 -0 -0 -0 -0 -0 -0 -0 -0 -0 -0 -0 -0 -0 -0 -0 -0 -0 -0 -0 -0 -0 -0 -0
-0 -0 -0 -0 -0 -0 -0 -0 -0 -0 -0 -0 -0 -0 -0 -0 -0 -0 -0 -0 -0 -11 -1 -3 -8 -2 -20 -0 -0 -0 -0 -0 -0 -0 -0 -0 -0 -0 -0 -0 -0 -0 -0 -0 -0 -0 -0 -0 -0 -0 -0 -0 -0 -0
-0 -0 -0 -0 -0 -0 -0 -0 -0 -0 -0 -0 -0 -0 -0 -0 -0 -0 -0 -0 -1 -25 -11 -6 -3 -0 -32 -9 -0 -31 -0 -0 -0 -0 -0 -0 -0 -0 -0 -0 -0 -0 -0 -0 -0 -0 -0 -0 -0 -0 -0 -0 -0 -26
-0 -0 -0 -0 -0 -0 -0 -0 -0 -0 -0 -0 -0 -0 -0 -0 -0 -0 -0 -0 -0 -8 -7 -0 -0 -48 -41 -19 -0 -0 -0 -0 -0 -0 -0 -0 -0 -0 -0 -0 -0 -0 -0 -0 -0 -0 -0 -0 -0 -0 -0 -0 -0 -0
-0 -0 -0 -0 -0 -0 -0 -0 -0 -0 -0 -0 -50 -0 -0 -0 -0 -0 -0 -0 -0 -2 -10 -70 -81 -75 -0 -0 -0 -0 -0 -0 -0 -0 -0 -0 -0 -0 -0 -0 -0 -0 -0 -0 -0 -0 -0 -0 -0 -0 -0 -0 -0 -0
-0 -0 -0 -0 -0 -0 -0 -0 -0 -0 -0 -0 -72 -0 -0 -0 -0 -0 -0 -0 -0 -0 -0 -71 -56 -0 -0 -0 -0 -0 -0 -0 -0 -0 -0 -0 -0 -0 -0 -0 -0 -0 -0 -0 -0 -0 -0 -0 -0 -0 -0 -0 -0 -0
-0 -0 -0 -0 -0 -0 -0 -0 -0 -0 -35 -6 -12 -15 -19 -19 -10 -0 -0 -0 -0 -0 -0 -0 -0 -0 -0 -0 -0 -0 -0 -0 -0 -0 -0 -0 -0 -0 -0 -0 -0 -0 -10 -44 -0 -0 -0 -0 -0 -0 -0 -0 -0 -0
-0 -0 -0 -0 -0 -7 -0 -34 -32 -48 -64 -0 -18 -15 -16 -15 -0 -0 -0 -0 -0 -0 -0 -0 -0 -0 -0 -0 -0 -0 -0 -0 -0 -0 -0 -0 -0 -0 -0 -0 -77 -79 -72 -10 -0 -0 -0 -0 -0 -0 -0 -0 -0 -0
-0 -1 -0 -0 -50 -0 -17 -27 -35 -40 -32 -21 -14 -9 -9 -31 -17 -20 -22 -23 -0 -0 -0 -0 -0 -0 -0 -0 -0 -0 -0 -0 -0 -0 -0 -0 -0 -2 -2 -3 -0 -0 -0 -0 -0 -0 -0 -0 -0 -0 -0 -0 -0 -0
-8 -11 -5 -3 -4 -7 -12 -13 -23 -19 -9 -14 -10 -7 -8 -8 -7 -13 -13 -18 -0 -0 -0 -0 -0 -0 -0 -0 -0 -0 -0 -0 -0 -0 -0 -0 -0 -0 -0 -0 -0 -0 -0 -0 -0 -0 -0 -0 -0 -0 -0 -0 -0 -0
-15 -12 -13 -3 -21 -5 -9 -33 -30 -12 -9 -6 -13 -11 -5 -1 -2 -21 -34 -0 -89 -114 -0 -0 -0 -0 -0 -0 -0 -0 -0 -0 -0 -0 -0 -0 -0 -0 -0 -0 -0 -0 -0 -0 -0 -0 -0 -0 -0 -0 -0 -0 -0 -0
-17 -4 -1 -4 -5 -7 -0 -1 -8 -21 -15 -13 -7 -7 -2 -2 -4 -18 -0 -0 -0 -0 -0 -0 -0 -0 -0 -0 -0 -0 -0 -0 -0 -0 -0 -0 -0 -0 -0 -0 -0 -0 -0 -0 -0 -0 -0 -0 -0 -0 -0 -0 -0 -0
-0 -6 -3 -5 -1 -2 -2 -8 -9 -11 -23 -8 -7 -27 -5 -17 -33 -0 -6 -0 -0 -0 -134 -0 -0 -0 -0 -0 -0 -0 -0 -0 -7 -0 -0 -0 -0 -0 -0 -0 -0 -0 -0 -0 -0 -0 -0 -0 -0 -0 -0 -0 -0 -0
-0 -0 -2 -2 -1 -1 -3 -7 -33 -34 -32 -28 -20 -20 -20 -31 -32 -40 -83 -0 -35 -82 -89 -53 -54 -58 -43 -43 -31 -90 -46 -0 -0 -2 -24 -0 -0 -0 -0 -0 -0 -0 -0 -0 -0 -0 -0 -0 -0 -0 -0 -0 -0 -0
-4 -0 -0 -1 -0 -0 -12 -37 -49 -26 -25 -27 -23 -15 -16 -32 -0 -0 -0 -38 -101 -105 -82 -72 -60 -109 -75 -50 -40 -36 -39 -39 -0 -0 -0 -0 -0 -0 -0 -0 -0 -0 -0 -0 -0 -0 -0 -0 -0 -0 -0 -0 -0 -0
-0 -0 -0 -3 -25 -33 -4 -0 -22 -18 -17 -25 -11 -24 -34 -21 -0 -0 -134 -152 -114 -81 -94 -99 -53 -48 -92 -138 -157 -146 -190 -123 -106 -0 -0 -0 -0 -0 -0 -0 -0 -0 -0 -0 -0 -0 -0 -0 -0 -0 -0 -0 -0 -0
-0 -5 -0 -9 -33 -25 -29 -7 -18 -24 -21 -13 -0 -0 -0 -0 -0 -88 -172 -195 -179 -128 -108 -143 -194 -178 -145 -0 -0 -0 -0 -0 -0 -0 -0 -0 -0 -0 -0 -0 -0 -0 -0 -0 -0 -0 -0 -0 -0 -0 -0 -0 -0 -0
Wind_Speed
10 12 17 22 22 25 26 27 25 30 31 31 31 28 24 24 23 20 15 15 19 17 14 12 12 14 16 16 16 16 19 22 17 13 9 20 24 25 26 23 23 24 24 28 27 30 33 21 20 25 19 15 14 16
4 8 12 19 22 22 23 22 21 25 29 29 28 26 24 23 22 20 16 14 17 14 14 14 9 9 8 9 13 15 18 20 14 14 11 17 20 21 22 24 19 23 20 20 23 24 18 15 14 16 13 12 15 13
2 3 3 10 12 15 19 15 12 12 19 24 24 24 23 22 20 19 14 14 16 16 14 15 12 12 12 9 10 13 15 17 16 12 13 14 19 20 22 21 20 17 15 15 16 15 13 13 10 10 9 10 11 10
5 2 2 4 10 15 21 21 16 19 20 20 19 19 19 19 18 15 12 12 14 16 14 17 15 13 13 12 12 11 14 16 17 16 16 15 16 19 18 19 20 19 19 15 14 10 10 11 10 10 10 10 9 9
11 4 3 5 0 8 19 19 21 20 19 18 17 16 17 18 17 14 10 9 11 13 14 15 12 14 12 12 12 13 14 15 14 17 17 14 16 17 17 18 18 19 20 20 20 15 17 14 14 14 12 12 11 11
16 10 11 12 6 2 4 5 9 16 18 19 18 17 17 17 17 14 14 12 12 14 16 15 15 15 16 15 13 11 13 13 13 13 15 14 16 17 19 19 16 15 15 18 18 13 12 13 13 15 15 16 15 14
17 12 13 9 5 1 2 3 6 12 18 18 19 18 17 15 15 14 14 14 14 17 14 12 14 15 15 16 15 13 12 12 12 12 14 14 14 16 18 21 14 15 13 14 15 14 14 13 16 16 16 16 15 15
19 16 13 11 5 2 2 3 2 7 10 16 20 19 16 13 12 15 13 8 9 15 13 12 13 14 16 17 16 15 14 13 13 12 12 12 14 15 15 11 8 7 11 12 11 12 13 13 15 16 16 16 16 19
21 17 15 12 8 4 3 6 7 9 12 16 19 18 16 16 16 16 16 14 11 10 11 12 14 16 15 17 17 16 15 14 13 13 13 13 13 14 13 9 10 11 7 7 9 11 11 12 14 15 16 17 18 20
23 17 19 17 4 2 6 9 10 12 14 15 17 16 16 17 16 15 15 15 14 14 12 12 13 16 14 16 17 16 17 16 15 16 14 15 14 15 16 9 7 7 8 7 10 11 12 13 14 15 16 17 19 21
25 24 26 21 7 10 11 9 12 13 16 14 14 15 17 15 15 15 15 15 15 14 13 13 13 15 15 16 15 15 16 16 16 16 14 15 14 16 17 16 12 8 7 8 11 10 11 12 14 16 17 19 21 23
16 27 26 23 14 15 12 11 12 13 13 14 13 13 15 16 16 16 15 15 15 15 14 14 14 13 15 14 15 14 15 15 15 15 15 15 14 16 18 17 16 14 11 9 8 9 11 13 15 17 18 20 21 23
9 17 24 16 14 14 12 10 10 14 15 15 15 16 17 16 16 16 16 16 16 16 14 14 13 13 14 14 15 16 15 14 14 15 14 12 13 14 15 15 15 15 14 12 10 9 11 13 14 17 19 20 21 23
10 14 16 17 14 11 11 10 11 12 13 14 14 15 15 15 13 15 15 15 16 15 14 13 13 14 13 14 16 15 15 15 14 13 12 13 11 12 12 12 12 12 12 11 9 8 9 11 14 16 17 19 21 23
8 13 18 24 7 6 9 10 10 13 12 11 14 14 12 10 11 10 11 13 14 14 14 14 14 14 13 12 14 14 15 14 13 13 13 13 13 12 11 11 11 11 11 10 8 8 7 9 12 16 16 18 17 18
9 16 17 15 15 11 10 12 13 13 12 11 11 11 11 11 9 11 12 12 14 15 16 16 16 15 15 15 13 14 14 13 13 11 10 12 12 12 12 12 10 10 10 9 8 6 6 7 5 4 8 7 8 9
8 17 15 15 10 10 11 14 13 12 11 11 11 9 8 7 8 11 12 13 14 15 15 14 14 15 17 15 14 14 13 11 8 7 10 12 13 13 13 12 11 11 10 9 8 7 7 7 7 6 5 4 6 6
14 14 11 9 10 10 13 13 12 11 9 9 11 11 10 9 11 12 13 15 15 14 14 13 13 13 14 14 14 12 9 8 7 11 13 15 15 14 14 13 13 12 12 11 10 9 9 8 7 6 6 9 11 11
12 9 7 8 10 12 14 12 11 11 9 11 10 9 10 10 11 15 15 16 15 14 14 14 13 13 12 12 9 7 9 10 11 14 16 16 15 15 15 13 13 12 11 10 9 8 7 6 5 6 7 10 8 10
11 7 7 9 12 13 13 12 11 11 12 14 11 10 11 11 12 12 12 10 15 15 14 14 13 13 13 11 10 9 12 12 14 15 16 16 16 16 16 16 15 13 12 10 8 7 6 4 3 4 4 4 5 4
12 11 8 10 12 11 13 13 12 12 12 12 12 10 10 11 11 12 11 9 12 13 12 12 12 11 11 10 10 11 11 12 13 15 15 15 16 16 16 15 14 13 11 10 9 7 7 7 10 11 10 10 10 9
13 6 11 10 11 12 13 10 13 14 13 12 12 12 10 11 12 12 11 7 18 14 11 10 10 10 11 11 12 13 13 14 16 16 16 16 14 14 13 12 12 10 9 8 7 6 7 10 12 14 14 14 14 13
7 8 10 10 11 11 14 12 13 13 14 15 15 12 12 12 12 12 11 12 19 8 9 11 11 13 15 16 16 16 16 17 17 16 16 15 15 13 11 10 8 6 5 4 4 3 5 8 10 12 13 15 14 13
9 9 12 12 10 13 13 13 13 14 14 14 14 13 12 12 12 11 12 17 18 16 12 13 14 15 16 16 16 17 18 17 17 16 15 14 13 12 10 8 7 6 4 4 5 5 6 6 7 9 11 11 11 12
12 12 13 13 12 13 13 13 13 13 14 13 14 12 12 12 12 12 12 16 15 13 12 14 14 14 15 16 17 17 17 17 16 15 14 13 11 10 9 8 6 7 10 9 8 8 7 7 7 8 8 9 9 9
14 12 11 11 11 11 11 14 12 12 13 15 13 13 14 15 14 13 14 16 14 13 12 12 14 14 15 15 15 15 15 14 13 12 12 11 9 8 8 10 11 15 14 13 13 13 11 10 10 9 8 6 6 7
15 14 12 11 12 12 13 13 13 15 15 15 13 12 13 15 16 14 13 14 14 15 15 12 14 16 15 14 14 14 15 14 13 14 15 14 14 15 15 15 15 16 16 16 15 15 14 13 13 13 11 11 10 10
12 13 10 11 10 10 12 13 13 14 17 18 17 13 14 15 19 12 12 16 18 18 17 11 16 16 15 14 14 14 15 15 15 16 16 16 17 18 17 16 16 17 18 18 17 16 16 16 17 17 16 14 12 13
11 11 10 10 10 10 9 8 8 8 17 19 20 19 19 17 18 21 20 19 18 17 14 12 15 15 14 13 11 10 11 12 13 13 13 14 15 16 17 17 18 19 19 19 19 18 17 16 16 15 13 12 13 14
9 9 10 11 10 10 10 14 15 14 19 21 21 21 21 22 22 22 23 23 21 20 16 13 12 12 11 10 9 9 9 9 9 9 10 12 14 16 16 16 17 19 19 19 18 17 16 14 13 12 12 13 14 15
14 13 12 14 12 13 14 15 17 18 21 21 22 22 21 20 21 23 23 21 18 16 16 14 13 11 10 9 7 7 7 8 8 8 10 12 13 15 14 15 17 17 17 17 16 16 15 14 14 15 15 15 13 12
12 12 13 14 13 12 12 13 16 18 20 22 21 20 20 19 21 21 20 13 15 17 15 13 12 10 8 7 7 7 9 9 8 9 9 10 11 13 14 15 16 16 16 16 15 14 14 14 13 13 14 13 13 14
12 12 18 17 15 14 14 16 16 16 17 19 20 22 23 23 21 19 17 18 18 17 16 13 11 10 12 12 12 12 11 12 12 12 12 13 14 16 16 16 16 16 16 16 15 14 14 13 13 13 13 14 16 18
Wind_Direction
5 9 5 354 356 354 358 0 11 349 344 352 359 4 11 11 14 24 33 31 20 33 38 47 53 47 46 50 41 37 37 35 47 53 58 288 268 258 255 255 248 245 243 245 249 250 251 273 259 255 265 271 280 278
4 9 6 355 353 358 0 7 13 6 353 1 5 10 12 14 16 19 29 27 20 33 35 41 65 65 69 69 57 40 27 30 51 52 76 315 271 262 251 243 254 245 253 252 255 257 273 275 270 272 271 271 278 280
325 344 355 2 4 3 358 14 26 32 23 14 13 14 16 16 16 19 30 32 18 25 39 41 53 61 71 87 79 51 52 52 56 91 86 122 275 262 241 245 249 250 258 257 256 262 269 269 277 286 278 280 289 303
227 286 283 359 6 4 353 353 10 13 15 19 23 23 22 20 18 25 38 39 21 21 40 39 48 55 61 72 77 74 72 76 77 89 100 124 151 224 237 245 247 252 254 253 263 259 267 275 281 283 290 294 298 314
213 217 212 216 352 11 358 357 351 360 8 15 23 23 20 20 20 24 34 46 32 25 36 33 42 51 67 73 75 78 81 82 88 78 90 127 183 219 238 248 252 255 253 253 254 255 269 268 277 281 285 287 295 300
209 205 213 225 237 283 354 5 13 3 2 4 12 17 18 21 25 33 37 65 51 25 25 41 41 45 54 57 66 84 88 90 95 93 94 125 220 237 233 249 259 268 270 260 252 265 277 272 283 284 284 290 298 303
205 200 213 216 213 281 302 331 7 8 1 4 9 15 20 30 36 43 44 49 49 24 36 46 44 46 50 49 54 73 89 94 100 99 95 109 128 229 243 237 268 260 282 269 263 263 273 282 277 293 302 310 317 318
205 204 210 221 230 259 287 289 351 18 21 8 4 11 23 33 41 40 43 71 51 27 45 61 52 49 44 41 52 63 84 92 91 108 121 122 343 270 274 305 38 357 275 271 282 287 289 291 292 300 310 313 315 314
205 205 213 223 231 251 312 20 24 18 17 13 10 16 27 34 34 36 44 49 52 61 75 67 55 49 61 46 53 66 76 86 95 97 80 105 117 326 312 62 82 88 16 349 337 326 318 313 312 311 318 315 316 320
206 205 226 231 240 354 18 22 26 25 16 17 17 31 32 32 40 52 56 82 96 90 87 72 68 50 80 59 51 65 67 78 90 94 109 117 132 178 246 352 29 55 350 5 329 325 318 322 325 322 319 324 328 324
211 225 250 245 11 8 8 27 26 24 26 43 42 37 32 42 58 66 76 85 94 85 86 99 96 63 81 65 67 89 77 74 87 92 108 114 129 131 117 110 81 41 360 335 318 327 325 323 321 323 326 331 330 330
300 274 252 315 3 5 21 34 34 34 38 40 42 41 56 64 66 66 73 85 89 77 94 90 92 86 63 73 80 93 88 75 81 88 100 104 123 118 115 113 108 96 79 46 11 355 338 327 321 321 324 329 332 333
312 313 306 348 0 7 27 38 41 29 26 34 46 51 51 62 57 59 67 74 64 69 97 91 92 88 77 87 78 69 74 84 85 73 86 111 91 104 114 104 97 101 101 90 59 28 4 347 345 335 331 335 337 338
304 321 332 339 355 12 24 38 43 41 39 47 46 46 53 55 65 73 84 71 50 56 84 95 96 90 86 89 72 84 88 99 93 94 82 70 95 106 106 101 95 101 111 102 84 57 33 15 355 349 345 345 344 340
304 320 323 308 9 28 29 40 55 35 49 60 49 52 54 64 72 87 111 100 84 86 90 97 100 101 92 108 97 90 94 100 100 92 69 60 61 77 101 109 105 99 108 107 93 82 63 26 358 345 345 343 350 354
305 310 324 342 349 17 51 53 37 40 52 56 65 51 51 57 83 125 127 113 99 80 84 102 97 91 89 104 103 110 110 113 105 100 93 70 74 83 97 107 101 94 103 101 94 86 55 36 45 62 22 23 20 14
318 304 326 334 21 54 60 18 33 48 56 61 56 61 69 87 114 130 125 126 102 89 101 102 104 99 90 96 97 109 110 121 126 131 116 110 98 92 97 97 98 102 98 93 88 82 96 78 72 62 61 61 38 27
299 313 346 30 42 40 8 19 43 47 51 53 47 52 74 101 121 124 122 132 116 118 99 119 116 114 106 99 96 100 127 134 129 122 108 96 88 90 100 106 112 119 115 103 95 86 81 76 68 62 47 22 13 15
307 339 41 44 9 6 5 29 41 46 57 47 58 77 86 103 140 165 147 143 130 108 100 113 120 117 124 118 116 121 118 116 112 105 99 93 86 95 98 97 106 109 108 101 93 87 69 65 59 35 20 9 7 9
326 5 52 8 356 358 3 24 38 39 44 37 54 74 84 101 88 65 91 91 123 119 116 120 120 117 118 119 117 124 113 104 105 105 106 105 101 99 105 104 111 114 112 106 106 99 89 84 60 35 23 13 11 17
308 326 354 344 344 358 3 18 33 38 38 45 49 58 75 80 97 84 85 64 110 135 138 148 150 133 139 132 119 117 116 108 111 114 111 109 114 107 101 103 104 104 106 108 111 102 82 66 39 34 36 34 34 31
302 354 330 355 1 8 1 20 18 22 32 33 38 53 79 68 74 68 61 89 189 162 139 130 129 127 127 129 112 106 103 104 107 99 93 93 103 107 108 110 105 111 111 114 108 99 70 42 35 32 35 32 27 32
27 348 351 360 0 8 353 12 11 24 23 21 23 44 71 62 34 43 59 264 273 32 88 112 102 103 101 92 86 83 93 98 105 104 94 94 98 102 100 97 104 102 97 111 91 81 56 42 45 41 35 29 30 34
349 356 353 1 5 355 4 7 9 8 11 15 21 31 52 27 26 34 9 296 302 315 64 76 82 80 83 89 86 87 88 92 94 95 97 93 91 89 89 85 82 84 76 59 47 39 34 39 47 42 41 39 37 32
329 342 352 353 2 0 3 5 9 11 8 15 12 19 22 8 27 9 354 296 309 312 57 78 98 99 87 87 90 95 95 96 93 89 85 83 76 64 56 52 58 54 45 44 41 36 34 42 52 46 42 41 37 34
329 355 5 13 13 12 13 7 13 13 4 356 356 354 350 324 330 313 307 290 302 330 48 68 89 97 102 99 90 92 95 96 87 84 70 68 62 53 44 46 49 38 41 40 33 30 37 47 47 44 41 47 52 40
325 344 7 13 13 14 6 1 355 347 343 339 348 4 350 307 287 298 322 301 316 323 336 74 108 113 102 101 99 90 80 80 79 66 62 62 62 62 60 55 49 43 37 37 35 40 47 47 42 41 44 50 52 51
2 12 27 22 14 7 358 359 356 344 323 301 301 325 325 295 255 299 318 306 292 301 296 74 121 121 113 101 90 81 76 75 71 70 72 72 64 58 57 57 53 48 43 41 46 53 54 52 47 45 51 56 54 45
27 42 42 31 38 49 55 62 43 58 303 276 260 272 266 275 276 250 268 278 261 273 275 73 102 113 115 120 112 93 76 67 68 67 67 63 57 55 56 55 54 50 49 51 55 59 62 61 58 58 56 50 37 23
56 74 50 64 80 98 131 142 166 168 217 227 235 241 244 238 223 207 231 255 241 226 131 105 93 116 130 129 107 89 86 87 90 83 74 64 56 55 60 63 61 56 60 63 67 71 70 70 68 61 49 39 33 28
53 69 84 148 137 158 170 180 190 205 213 211 211 219 228 236 243 229 209 198 176 153 150 150 143 137 133 131 116 99 91 96 105 102 78 65 58 57 68 72 69 70 72 72 75 73 70 64 57 49 45 40 33 28
80 96 107 167 187 180 164 177 187 191 199 201 209 195 196 193 186 165 176 102 128 151 158 154 164 158 101 93 73 82 76 72 98 120 100 84 75 68 85 86 79 76 76 72 75 75 72 66 60 52 42 34 30 27
95 123 206 230 203 174 155 166 182 192 194 187 175 167 161 154 154 192 203 167 175 173 157 139 123 96 57 57 66 71 74 65 78 95 96 87 80 85 91 88 81 79 76 73 73 76 72 63 55 47 40 34 32 30